Вернуться в каталог

INTELSAT 33E DEB

LostMEO
NORAD 64401·DEBRIS· XX

Запущен Aug 24, 2016 с Guiana Space Centre

Loading…

Ближайшие Пролёты (ближайшие 24 часа)

TLE

УстаревшееSource: Space-Track

Эпоха: Jul 26, 2026, 14:52 UTC

1 64401U 16053AF  26207.61973246 -.00000187  00000-0  00000-0 0  9992
2 64401   1.5628  71.4430 0671253 344.5134  13.3663  1.05820814  6722

Отслеживайте INTELSAT 33E DEB в реальном времени с AllMySat

Download on the App Store